User: anonymous   Login
Location: Mentone
(34.5413°N, 85.5351°W)
Time: 19:18:34
(UTC-05:00)
Language:

Cosmos 1703 - Orbit

View from above orbital plane
View from above orbital plane
View from above satellite
View from above satellite

Ground track
Ground track

The orbit data is extracted from the following two-line orbital elements,

1 16262U 85108A   16268.05535504  .00000407  00000-0  23179-4 0  9996
2 16262  82.4800 151.2604 0011646 105.7859 254.4656 15.09936242678737
Epoch (UTC): 24 September 2016 01:19:42
Eccentricity: 0.0011646
inclination: 82.4800°
perigee height: 528 km
apogee height: 544 km
right ascension of ascending node: 151.2604°
argument of perigee: 105.7859°
revolutions per day: 15.09936242
mean anomaly at epoch: 254.4656°
orbit number at epoch: 67873

The dashed part of the orbit path shows where the satellite is in the earth's shadow,  

DLR